Tracking 28125 objects as of 4-Oct-2023
HD Live streaming from Space Station
objects crossing your sky now

GEOSAT

Track GEOSAT now!
10-day predictions
GEOSAT is classified as:


NORAD ID: 15595
Int'l Code: 1985-021A
Perigee: 768.3 km
Apogee: 771.7 km
Inclination: 108.1 °
Period: 100.1 minutes
Semi major axis: 7140 km
RCS: 9.5926 m2 (large)
Launch date: March 13, 1985
Source: United States (US)
Launch site: AIR FORCE WESTERN TEST RANGE (AFWTR)
Your satellite tracking list
Your tracking list is empty




NASA's NSSDC Master Catalog

Two Line Element Set (TLE):
1 15595U 85021A   23276.60660327  .00000525  00000-0  21513-3 0  9998
2 15595 108.0513 186.9698 0002346 293.7170  66.3725 14.38686489 20666
Source of the keplerian elements: AFSPC